{"data":{"norad_id":67009,"intl_designator":"2025-293G","name":"STARLINK-36118","alt_names":[],"object_type":"PAYLOAD","status":"ACTIVE","operator":null,"country":"US","launch_date":"2025-12-10","launch_site_code":"AFWTR","launch_vehicle":null,"mission":null,"orbit_class":"UNKNOWN","rcs_meters":null,"size_class":null,"mass_kg":null,"dimensions":null,"purposes":["comms"],"wikipedia_slug":null,"has_3d_model":false,"image_url":null,"decayed_at":null,"tle_current":{"epoch":"2026-05-25T00:38:20.571072Z","epoch_age_seconds":68649,"freshness":"FRESH","line1":"1 67009U 25293G   26145.02662698  .00002576  00000+0  22356-3 0  9990","line2":"2 67009  70.0005 261.9293 0003331 267.6313  92.4465 14.98337567 26322","mean_motion":14.98337567,"eccentricity":0.0003331,"inclination_deg":70.0005,"raan_deg":261.9293,"arg_perigee_deg":267.6313,"mean_anomaly_deg":92.4465,"bstar":0.00022356,"rev_number":2632,"period_min":96.106513759993,"perigee_km":569.71738926224,"apogee_km":574.34759217696,"semimajor_km":6950.1694907196,"source":"CELESTRAK","updated_at":"2026-05-25T13:38:21.430490Z"}}}